COSMOS 2251 DEB, 33805

Orbit data source: Space-Track

COSMOS 2251 DEB, 33805 is space debris in LEO originally from a launch on Wed, 16 Jun 1993 UTC launched from the Plesetsk Missile And Space Complex (PKMTR). The debris from Iridium 33, an American commercial communications satellite, has been tracked extensively since its accidental collision with the defunct Russian satellite Cosmos 2251 in 2009. This event, occurring at high speed in low Earth orbit (LEO), generated thousands of pieces of space debris, significantly increasing the risk of further collisions. The Iridium 33 debris cloud has impacted space traffic management and orbital debris mitigation strategies, making it a subject of ongoing study in space situational awareness.

Loading next visibility...
Identifier
33805, 1993-036AW
Orbit
LEO
Country
Flag of CISCIS
Related business
Manufacturer
Unknown
Mission
Spacecraft
Bus & Motor
Unknown
Mass
Unknown
Launch date (UTC)
1993-06-16 (32 years ago)
Launch vehicle
Unknown
Launch site
Plesetsk Missile And Space Complex (PKMTR)
Object type
Payload
Rocket body
Debris
Shape & HBR
Unknown shape, 0.3 m
Radar Cross Section
Small (<0.1 m²)

Expand to show TLE details & history
Last TLE update: 14 hours ago

TLE from 14 hours ago
0 COSMOS 2251 DEB
1 33805U 93036AW  25286.63500555  .00001796  00000-0  39041-3 0  9995
2 33805  74.0303  65.6502 0062410 268.5463  90.8552 14.57615951883517
Epoch: 2025-10-13T15:14Z
TLE epoch observation values (Epoch: 2025-10-13T15:14:24.479Z)
Latitude
0.00002°
Longitude
174.61325°
Altitude
704.454 km
Speed
7.503 km/s
True Right ascension
04h 22m 36s
True Declination
0° 00' 00"
Sunlit
Object was in full shadow at epoch
Visualization orbit readout
Latitude
Unknown
Longitude
Unknown
Altitude
Unknown
Speed
Unknown
Apparent Right ascension
Unknown
Apparent Declination
Unknown
Sunlit
N/A
Visualization observer readout
Local Sidereal Time
23:46:22
Azimuth
Unknown
Elevation
Unknown
Doppler factor
Unknown
Orbital elements
Apogee altitude
742.648 km
Perigee altitude
654.318 km
Semi-major axis
7,076.62 km
Eccentricity
0.00624
Inclination
74.0303°
RAAN
65.6502°
Arg. of periapsis
268.5463°
True anomaly
91.57018°
Mean anomaly
90.8552°
Eccentric anomaly
91.2127°
Mean motion
3.6459 °/min
Orbital period
98.74 mins
BSTAR
0.00039041

Documentation

Showing up to 5 results
|